TimeCST,TemperatureF,Dew PointF,Humidity,Sea Level PressureIn,VisibilityMPH,Wind Direction,Wind SpeedMPH,Gust SpeedMPH,PrecipitationIn,Events,Conditions,WindDirDegrees,DateUTC
12:53 AM,37.0,28.9,73,29.75,7.0,South,17.3,24.2,N/A,,Clear,170,2012-12-01 06:53:00
1:53 AM,36.0,28.9,76,29.73,7.0,South,16.1,-,N/A,,Clear,180,2012-12-01 07:53:00
2:53 AM,37.4,28.4,70,29.67,7.0,South,19.6,25.3,N/A,,Clear,180,2012-12-01 08:53:00
3:53 AM,35.6,28.4,75,29.65,7.0,South,15.0,-,N/A,,Clear,170,2012-12-01 09:53:00
4:53 AM,36.0,28.9,76,29.69,7.0,South,10.4,-,N/A,,Clear,180,2012-12-01 10:53:00
5:53 AM,35.1,28.9,78,29.70,7.0,South,10.4,-,N/A,,Clear,190,2012-12-01 11:53:00
6:53 AM,34.0,28.9,82,29.71,7.0,South,6.9,-,N/A,,Clear,190,2012-12-01 12:53:00
7:53 AM,33.1,28.0,82,29.73,6.0,SW,6.9,-,N/A,,Haze,220,2012-12-01 13:53:00
8:53 AM,34.0,28.0,79,29.75,5.0,SW,5.8,-,N/A,,Haze,230,2012-12-01 14:53:00
9:53 AM,39.2,28.4,65,29.73,10.0,NW,6.9,-,N/A,,Clear,310,2012-12-01 15:53:00
10:53 AM,43.0,28.9,58,29.77,10.0,NW,6.9,-,N/A,,Clear,320,2012-12-01 16:53:00
11:53 AM,46.0,28.9,51,29.77,10.0,NW,8.1,-,N/A,,Clear,320,2012-12-01 17:53:00
12:53 PM,50.0,30.2,47,29.73,10.0,NW,8.1,-,N/A,,Clear,320,2012-12-01 18:53:00
1:53 PM,51.1,30.9,46,29.76,10.0,NNW,5.8,-,N/A,,Clear,330,2012-12-01 19:53:00
2:53 PM,50.0,33.1,52,29.77,10.0,North,6.9,-,N/A,,Clear,350,2012-12-01 20:53:00
3:53 PM,48.9,33.1,54,29.78,10.0,Calm,Calm,-,N/A,,Scattered Clouds,0,2012-12-01 21:53:00
4:53 PM,45.0,33.1,63,29.81,10.0,NNE,4.6,-,N/A,,Mostly Cloudy,20,2012-12-01 22:53:00
5:53 PM,37.9,30.9,76,29.83,10.0,North,6.9,-,N/A,,Mostly Cloudy,360,2012-12-01 23:53:00
6:53 PM,34.0,30.0,85,29.86,10.0,NE,3.5,-,N/A,,Clear,40,2012-12-02 00:53:00
7:53 PM,30.0,28.0,92,29.88,6.0,North,5.8,-,N/A,,Clear,360,2012-12-02 01:53:00
8:53 PM,30.9,28.9,92,29.90,5.0,NNE,5.8,-,N/A,,Clear,20,2012-12-02 02:53:00
9:53 PM,28.9,28.0,96,29.90,4.0,North,4.6,-,N/A,,Clear,10,2012-12-02 03:53:00
10:19 PM,28.4,26.6,93,29.86,2.5,NNE,5.8,-,N/A,,Clear,30,2012-12-02 04:19:00
10:37 PM,26.6,24.8,93,29.85,1.2,Calm,Calm,-,N/A,,Clear,0,2012-12-02 04:37:00
10:41 PM,26.6,24.8,93,29.85,0.5,Calm,Calm,-,N/A,Fog,Light Freezing Fog,0,2012-12-02 04:41:00
10:53 PM,26.1,24.1,92,29.90,0.5,NE,3.5,-,N/A,Fog,Light Freezing Fog,40,2012-12-02 04:53:00
11:03 PM,26.6,23.0,86,29.86,0.2,NNE,3.5,-,N/A,Fog,Light Freezing Fog,30,2012-12-02 05:03:00
11:53 PM,21.9,19.9,92,29.92,0.2,Calm,Calm,-,N/A,Fog,Light Freezing Fog,0,2012-12-02 05:53:00